GW1082 Weather Reports


time (UTC)temp
C
wind
direction
speed
KPH
gust
KPH
rain 1hr
cm
rain 24hr
cm
rain mn
cm
humidity
%
barometer
mb
20260507001529 10 343 3.2 12.9 0.00 0.00 0.00 39 1014.3
20260507000012 10 308 6.4 12.9 0.00 0.00 0.00 38 1014.3
20260506234518 10 359 3.2 16.1 0.00 0.00 0.00 38 1014.4
20260506233025 10 256 4.8 12.9 0.00 0.00 0.00 38 1014.5
20260506231527 10 315 4.8 11.3 0.00 0.00 0.00 38 1014.5
20260506230028 10 283 3.2 9.7 0.00 0.00 0.00 38 1014.6
20260506224518 10 299 6.4 16.1 0.00 0.00 0.00 37 1014.7
20260506223020 10 267 4.8 11.3 0.00 0.00 0.00 38 1014.9
20260506221526 10 302 3.2 11.3 0.00 0.00 0.00 40 1015.0
20260506220026 10 258 4.8 17.7 0.00 0.00 0.00 38 1015.2
20260506214528 10 284 6.4 17.7 0.00 0.00 0.00 38 1015.2
20260506213018 10 255 4.8 19.3 0.00 0.00 0.00 40 1015.4
20260506211524 10 281 6.4 16.1 0.00 0.00 0.00 39 1015.4
20260506210028 10 359 4.8 20.9 0.00 0.00 0.00 39 1015.8
20260506204528 10 284 4.8 14.5 0.00 0.00 0.00 38 1015.8
20260506203017 10 289 6.4 17.7 0.00 0.00 0.00 42 1016.0
20260506201504 9 304 6.4 20.9 0.00 0.00 0.00 40 1016.1
20260506200005 9 313 6.4 19.3 0.00 0.00 0.00 41 1016.1
20260506194515 8 276 4.8 14.5 0.00 0.00 0.00 44 1016.4
20260506193016 8 300 8.0 16.1 0.00 0.00 0.00 43 1016.5
20260506191518 8 360 9.7 22.5 0.00 0.00 0.00 41 1016.6
20260506190006 8 322 4.8 14.5 0.00 0.00 0.00 43 1016.8
20260506184507 7 236 4.8 16.1 0.00 0.00 0.00 44 1016.8
20260506183013 7 321 4.8 17.7 0.00 0.00 0.00 43 1016.8
20260506181516 7 338 8.0 20.9 0.00 0.00 0.00 43 1017.0
20260506180024 7 276 4.8 14.5 0.00 0.00 0.00 44 1017.2
20260506174507 7 310 4.8 14.5 0.00 0.00 0.00 47 1017.2
20260506173012 7 311 4.8 19.3 0.00 0.00 0.00 44 1017.4
20260506171513 6 258 4.8 14.5 0.00 0.00 0.00 44 1017.4
20260506170022 6 276 4.8 12.9 0.00 0.00 0.00 46 1017.6
20260506164522 6 319 4.8 19.3 0.00 0.00 0.00 48 1017.5
20260506163009 6 354 4.8 16.1 0.00 0.00 0.00 46 1017.7
20260506161511 6 359 6.4 17.7 0.00 0.00 0.00 48 1017.6
20260506160021 5 332 3.2 14.5 0.00 0.00 0.00 48 1017.6
20260506154522 5 262 4.8 17.7 0.00 0.00 0.00 50 1017.7
20260506153023 5 274 4.8 16.1 0.00 0.00 0.00 49 1017.9
20260506151512 5 293 9.7 16.1 0.00 0.00 0.00 49 1018.0
20260506150014 4 284 4.8 17.7 0.00 0.00 0.00 51 1018.0
20260506144523 4 272 6.4 16.1 0.00 0.00 0.00 51 1017.9
20260506143032 3 340 6.4 16.1 0.00 0.00 0.00 53 1018.1
20260506141526 3 360 4.8 16.1 0.00 0.00 0.00 54 1017.9
20260506140014 3 359 4.8 14.5 0.00 0.00 0.00 56 1018.0
20260506134517 3 359 6.4 12.9 0.00 0.00 0.00 56 1018.0
20260506133023 3 288 6.4 17.7 0.00 0.00 0.00 57 1017.8
20260506131525 2 333 4.8 12.9 0.00 0.00 0.00 61 1017.7
20260506130010 2 341 6.4 11.3 0.00 0.00 0.00 63 1017.6
20260506124514 2 315 3.2 9.7 0.00 0.00 0.00 65 1017.6
20260506123018 2 303 1.6 6.4 0.00 0.00 0.00 67 1017.4
20260506121524 2 335 1.6 9.7 0.00 0.00 0.00 69 1017.3
20260506120027 1 326 1.6 3.2 0.00 0.00 0.00 73 1017.0
20260506114512 1 319 0.0 3.2 0.00 0.00 0.00 72 1016.7
20260506113018 1 315 0.0 3.2 0.00 0.00 0.00 71 1016.5
20260506111519 1 325 0.0 3.2 0.00 0.00 0.00 71 1016.5
20260506110004 1 331 0.0 3.2 0.00 0.00 0.00 70 1016.3
20260506104507 1 331 0.0 3.2 0.00 0.00 0.00 68 1016.1
20260506103015 1 324 0.0 3.2 0.00 0.00 0.00 69 1016.1
20260506101518 0 324 0.0 0.0 0.00 0.00 0.00 70 1016.0
20260506100022 0 331 0.0 3.2 0.00 0.00 0.00 71 1016.0
20260506094506 0 331 0.0 0.0 0.00 0.00 0.00 72 1016.0
20260506093015 0 331 0.0 0.0 0.00 0.00 0.00 71 1016.0
20260506091516 0 331 0.0 0.0 0.00 0.00 0.00 70 1016.1
20260506090023 0 331 0.0 3.2 0.00 0.00 0.00 69 1016.0
20260506084524 0 350 0.0 3.2 0.00 0.00 0.00 69 1015.9
20260506083006 0 353 0.0 3.2 0.00 0.00 0.00 69 1015.5
20260506081512 1 354 0.0 3.2 0.00 0.00 0.00 69 1015.8
20260506073028 1 344 0.0 0.0 0.00 0.00 0.00 65 1015.8
20260506071510 1 352 0.0 0.0 0.00 0.00 0.00 65 1015.6
20260506061533 1 357 0.0 3.2 0.00 0.00 0.00 62 1015.9
20260506044513 3 314 0.0 3.2 0.00 0.00 0.00 59 1015.3
20260506043019 3 345 0.0 3.2 0.00 0.00 0.00 60 1015.1
20260506041524 3 307 0.0 3.2 0.00 0.00 0.00 60 1015.1
20260506040049 2 347 1.6 4.8 0.00 0.00 0.00 59 1015.1
20260506034526 2 322 0.0 3.2 0.00 0.00 0.00 60 1015.2
20260506033019 2 339 0.0 0.0 0.00 0.00 0.00 60 1015.1
20260506031538 2 339 0.0 0.0 0.00 0.00 0.00 59 1014.9
20260506030025 3 339 0.0 0.0 0.00 0.00 0.00 57 1014.7
20260506024528 3 359 1.6 3.2 0.00 0.00 0.00 55 1014.6
20260506023029 3 321 1.6 4.8 0.00 0.00 0.00 55 1014.3
20260506021518 3 332 0.0 3.2 0.00 0.00 0.00 54 1014.1
20260506020006 4 319 0.0 6.4 0.00 0.00 0.00 52 1013.9
20260506014511 5 328 3.2 9.7 0.00 0.00 0.00 50 1013.7
20260506013011 5 347 3.2 9.7 0.00 0.00 0.00 48 1013.5
20260506011519 6 321 3.2 11.3 0.00 0.00 0.00 46 1013.4
20260506010022 6 341 6.4 12.9 0.00 0.00 0.00 45 1013.2
20260506004511 6 322 3.2 14.5 0.00 0.00 0.00 45 1013.2
20260506003012 6 328 6.4 17.7 0.00 0.00 0.00 45 1013.4